• Join FlightAware (Why Join?)
  • Login
  • US Flag 
10:45AM EDT


 

Airport Tracker/Info


-or-


 

Live Flight TrackerFlight Track Log ✈ N210PM ✈ 16-Jun-2013 ✈ CYAM - CYCN

Flight Track Log - Related Links

Times and Time Zones

All times are in EDT time to prevent confusion due to time zone crossing. See the N210PM flight status page for this flight to view local times or setup timezone preferences in your user account.

Time Position Orientation Groundspeed Altitude Reporting Facility
EDT Latitude Longitude Course Direction KTS MPH feet Rate Location/Type
05:44PM 46.5167 -84.5667 309° West 170 196 5,300  Level Toronto Center
05:45PM 46.5500 -84.5333 35° Northeast 190 219 7,600 2,160 Climbing Toronto Center
05:46PM 46.6000 -84.4833 34° Northeast 200 230 9,700 2,100 Climbing Toronto Center
05:47PM 46.6333 -84.4167 54° Northeast 210 242 11,800 2,040 Climbing Toronto Center
05:48PM 46.6833 -84.3667 34° Northeast 210 242 13,800 1,920 Climbing Toronto Center
05:49PM 46.7333 -84.3333 25° Northeast 220 253 15,700 1,800 Climbing Toronto Center
05:50PM 46.7833 -84.2833 34° Northeast 220 253 17,500 1,860 Climbing Toronto Center
05:51PM 46.8667 -84.2333 22° Northeast 230 265 19,500 1,740 Climbing Toronto Center
05:52PM 46.9167 -84.2000 24° Northeast 230 265 21,000 720 Climbing Toronto Center
05:53PM 46.9833 -84.1500 27° Northeast 280 322 21,000  Level Toronto Center
05:54PM 47.0667 -84.1167 15° North 310 357 21,000  Level Toronto Center
05:55PM 47.1500 -84.0500 29° Northeast 330 380 21,000  Level Toronto Center
05:56PM 47.2333 -84.0000 22° Northeast 330 380 21,000  Level Toronto Center
05:57PM 47.3167 -83.9333 28° Northeast 340 391 21,000  Level Toronto Center
05:58PM 47.4000 -83.8667 28° Northeast 340 391 21,000  Level Toronto Center
05:59PM 47.4833 -83.8333 15° North 340 391 21,000  Level Toronto Center
06:00PM 47.5833 -83.7833 19° North 340 391 21,000  Level Toronto Center
06:01PM 47.6667 -83.7167 28° Northeast 340 391 21,000  Level Toronto Center
06:02PM 47.7500 -83.6500 28° Northeast 340 391 21,000  Level Toronto Center
06:03PM 47.8000 -83.5333 57° Northeast 350 403 21,000  Level Toronto Center
06:04PM 47.8333 -83.4000 70° East 360 414 21,000  Level Toronto Center
06:05PM 47.9000 -83.2667 53° Northeast 360 414 21,000  Level Toronto Center
06:06PM 47.9333 -83.1333 69° East 360 414 21,000  Level Toronto Center
06:07PM 47.9833 -83.0167 57° Northeast 360 414 21,000  Level Toronto Center
06:08PM 48.0333 -82.8667 63° Northeast 360 414 21,000  Level Toronto Center
06:09PM 48.0667 -82.7500 67° East 360 414 21,000  Level Toronto Center
06:10PM 48.1333 -82.6000 56° Northeast 360 414 21,000  Level Toronto Center
06:11PM 48.1667 -82.4833 67° East 360 414 21,000  Level Toronto Center
06:12PM 48.2167 -82.3500 61° Northeast 360 414 21,000  Level Toronto Center
06:13PM 48.2667 -82.2167 61° Northeast 360 414 21,000  Level Toronto Center
06:14PM 48.3000 -82.0833 69° East 360 414 21,000  Level Toronto Center
06:15PM 48.3667 -81.9667 49° Northeast 360 414 21,000 -600 Level Toronto Center
06:16PM 48.4167 -81.8167 63° Northeast 360 414 19,800 -1,380 Descending Toronto Center
06:17PM 48.4500 -81.6833 69° East 330 380 18,300 -1,680 Descending Toronto Center
06:18PM 48.4833 -81.5667 67° East 330 380 16,500 -1,860 Descending Toronto Center
06:19PM 48.5333 -81.4500 57° Northeast 330 380 14,600 -1,800 Descending Toronto Center
06:20PM 48.5833 -81.3500 53° Northeast 320 368 13,000 -1,620 Descending Toronto Center
06:21PM 48.6500 -81.3000 26° Northeast 290 334 11,400 -1,500 Descending Toronto Center
06:22PM 48.7167 -81.2167 40° Northeast 270 311 10,000 -1,440 Descending Toronto Center
06:23PM 48.7667 -81.1667 33° Northeast 260 299 8,600 -1,380 Descending Toronto Center
06:24PM 48.8333 -81.1167 26° Northeast 250 288 7,300 -1,320 Descending Toronto Center
06:27PM 48.9904 -81.0781 26° Northeast  Level FlightAware Approximate
06:34PM 49.1000 -81.0000 24° Northeast  Level FlightAware Approximate
06:35PM 49.1056 -81.0136 24° Northeast  Level Estimated
06:36PM 49.1056 -81.0136 24° Northeast  Level Estimated
06:37PM 49.1056 -81.0136 24° Northeast  Level Estimated
06:38PM 49.1056 -81.0136 24° Northeast  Level Estimated
06:39PM 49.1056 -81.0136 24° Northeast  Level Estimated
06:40PM 49.1056 -81.0136 24° Northeast  Level Estimated
06:41PM 49.1056 -81.0136 24° Northeast  Level Estimated
06:42PM 49.1056 -81.0136 24° Northeast  Level Estimated
06:43PM 49.1056 -81.0136 24° Northeast  Level Estimated
06:44PM 49.1056 -81.0136 24° Northeast  Level Estimated
06:45PM 49.1056 -81.0136 24° Northeast  Level Estimated